LOT46K EKCH-EPWA

Flight info

Callsign LOT46K
Flight time 1h 8m
Altitude 33000
Route SIMEG Z491 TELMO DCT KOLOB N195 ELPOL Y100 MALOX/N0333F230 L621 GRUDA N191 SORIX
Aircraft E195/M-SDE3GILORVW/S

Departure

Time 2026-05-05 20:41
Airport Copenhagen Kastrup Airport (EKCH)

Arrival

Time 2026-05-05 21:49
Airport Warsaw Chopin Airport (EPWA)
Time Latitude Longitude Altitude Speed Heading
2026-05-05 19:59 55.62852 12.63186 22 ft 0 kts 24°
2026-05-05 20:28 55.62841 12.63177 22 ft 4 kts 26°
2026-05-05 20:29 55.62820 12.63158 24 ft 3 kts 26°
2026-05-05 20:29 55.62805 12.63137 25 ft 4 kts 100°
2026-05-05 20:29 55.62816 12.63097 22 ft 4 kts 126°
2026-05-05 20:29 55.62819 12.63087 23 ft 2 kts 125°
2026-05-05 20:30 55.62812 12.63107 24 ft 4 kts 125°
2026-05-05 20:30 55.62807 12.63119 25 ft 3 kts 125°
2026-05-05 20:32 55.62804 12.63125 25 ft 2 kts 125°
2026-05-05 20:32 55.62777 12.63195 21 ft 11 kts 123°
2026-05-05 20:33 55.62731 12.63321 21 ft 13 kts 123°
2026-05-05 20:33 55.62683 12.63475 23 ft 15 kts 106°
2026-05-05 20:33 55.62672 12.63665 22 ft 16 kts 95°
2026-05-05 20:33 55.62650 12.63869 22 ft 18 kts 122°
2026-05-05 20:34 55.62579 12.64060 23 ft 20 kts 122°
2026-05-05 20:34 55.62496 12.64278 22 ft 22 kts 125°
2026-05-05 20:34 55.62401 12.64506 22 ft 24 kts 126°
2026-05-05 20:34 55.62310 12.64746 25 ft 21 kts 123°
2026-05-05 20:35 55.62237 12.64947 23 ft 19 kts 122°
2026-05-05 20:35 55.62177 12.65099 23 ft 9 kts 134°
2026-05-05 20:35 55.62156 12.65112 23 ft 1 kts 180°
2026-05-05 20:35 55.62144 12.65103 23 ft 6 kts 205°
2026-05-05 20:36 55.62074 12.65020 23 ft 16 kts 214°
2026-05-05 20:36 55.61972 12.64905 23 ft 19 kts 213°
2026-05-05 20:36 55.61861 12.64775 22 ft 20 kts 213°
2026-05-05 20:36 55.61745 12.64642 22 ft 20 kts 213°
2026-05-05 20:37 55.61621 12.64501 23 ft 22 kts 212°
2026-05-05 20:37 55.61533 12.64402 24 ft 23 kts 212°
2026-05-05 20:37 55.61349 12.64188 22 ft 25 kts 213°
2026-05-05 20:37 55.61201 12.64018 24 ft 26 kts 212°
2026-05-05 20:38 55.61046 12.63837 22 ft 27 kts 214°
2026-05-05 20:38 55.60883 12.63654 22 ft 28 kts 211°
2026-05-05 20:38 55.60720 12.63467 22 ft 28 kts 213°
2026-05-05 20:38 55.60573 12.63270 22 ft 12 kts 221°
2026-05-05 20:39 55.60517 12.63186 22 ft 12 kts 224°
2026-05-05 20:39 55.60447 12.63111 23 ft 12 kts 180°
2026-05-05 20:39 55.60383 12.63202 23 ft 13 kts 130°
2026-05-05 20:39 55.60334 12.63320 25 ft 9 kts 107°
2026-05-05 20:40 55.60349 12.63362 26 ft 0 kts 40°
2026-05-05 20:40 55.60374 12.63399 26 ft 26 kts 39°
2026-05-05 20:40 55.60714 12.63924 24 ft 101 kts 43°
2026-05-05 20:40 55.61408 12.64999 100 ft 155 kts 37°
2026-05-05 20:41 55.62273 12.66198 905 ft 162 kts 34°
2026-05-05 20:41 55.63190 12.67418 1749 ft 168 kts 38°
2026-05-05 20:41 55.64181 12.68898 2027 ft 200 kts 39°
2026-05-05 20:41 55.65205 12.70483 3013 ft 195 kts 41°
2026-05-05 20:42 55.66241 12.72175 3516 ft 215 kts 43°
2026-05-05 20:42 55.67349 12.74104 4152 ft 226 kts 44°
2026-05-05 20:42 55.68578 12.75957 4651 ft 243 kts 38°
2026-05-05 20:42 55.69918 12.77922 5175 ft 257 kts 40°
2026-05-05 20:43 55.71292 12.79981 5908 ft 261 kts 40°
2026-05-05 20:43 55.72607 12.82228 6573 ft 266 kts 54°
2026-05-05 20:43 55.73269 12.85317 7107 ft 276 kts 84°
2026-05-05 20:43 55.72989 12.88688 7655 ft 283 kts 114°
2026-05-05 20:44 55.71817 12.91471 8274 ft 284 kts 140°
2026-05-05 20:44 55.70427 12.93991 8922 ft 289 kts 128°
2026-05-05 20:44 55.69278 12.96972 9591 ft 295 kts 125°
2026-05-05 20:44 55.68167 13.00071 10164 ft 304 kts 124°
2026-05-05 20:45 55.65602 13.06437 11014 ft 327 kts 129°
2026-05-05 20:45 55.64224 13.09682 11643 ft 332 kts 130°
2026-05-05 20:45 55.62821 13.12962 12302 ft 336 kts 130°
2026-05-05 20:46 55.61396 13.16282 12956 ft 341 kts 130°
2026-05-05 20:46 55.59955 13.19646 13618 ft 346 kts 130°
2026-05-05 20:46 55.58491 13.23048 14222 ft 349 kts 131°
2026-05-05 20:46 55.57016 13.26486 14846 ft 353 kts 131°
2026-05-05 20:47 55.55524 13.29949 15460 ft 356 kts 131°
2026-05-05 20:47 55.54016 13.33453 16055 ft 360 kts 131°
2026-05-05 20:47 55.52490 13.36987 16666 ft 364 kts 131°
2026-05-05 20:47 55.50945 13.40566 17283 ft 368 kts 132°
2026-05-05 20:48 55.49382 13.44174 17915 ft 372 kts 132°
2026-05-05 20:48 55.47801 13.47826 18472 ft 377 kts 132°
2026-05-05 20:48 55.46196 13.51524 19042 ft 381 kts 132°
2026-05-05 20:48 55.44598 13.55203 19636 ft 385 kts 133°
2026-05-05 20:49 55.42964 13.58954 20229 ft 388 kts 133°
2026-05-05 20:49 55.41310 13.62750 20800 ft 392 kts 133°
2026-05-05 20:49 55.39643 13.66569 21342 ft 395 kts 133°
2026-05-05 20:49 55.37958 13.70421 21858 ft 399 kts 133°
2026-05-05 20:50 55.36261 13.74300 22372 ft 402 kts 133°
2026-05-05 20:50 55.35104 13.76935 22717 ft 404 kts 133°
2026-05-05 20:50 55.32820 13.82139 23378 ft 408 kts 133°
2026-05-05 20:50 55.31075 13.86100 23826 ft 411 kts 133°
2026-05-05 20:51 55.29892 13.88791 24128 ft 413 kts 133°
2026-05-05 20:51 55.28149 13.92735 24571 ft 416 kts 134°
2026-05-05 20:51 55.26373 13.96757 25013 ft 419 kts 134°
2026-05-05 20:51 55.24581 14.00804 25433 ft 422 kts 134°
2026-05-05 20:52 55.22753 14.04926 25837 ft 424 kts 134°
2026-05-05 20:52 55.20938 14.09013 26230 ft 427 kts 134°
2026-05-05 20:52 55.19106 14.13128 26597 ft 429 kts 134°
2026-05-05 20:52 55.17288 14.17212 26961 ft 432 kts 134°
2026-05-05 20:53 55.15434 14.21359 27311 ft 434 kts 135°
2026-05-05 20:53 55.13571 14.25532 27669 ft 437 kts 135°
2026-05-05 20:53 55.11693 14.29722 28023 ft 439 kts 135°
2026-05-05 20:53 55.09801 14.33940 28378 ft 442 kts 135°
2026-05-05 20:54 55.07902 14.38166 28691 ft 444 kts 135°
2026-05-05 20:54 55.05986 14.42413 29052 ft 446 kts 135°
2026-05-05 20:54 55.04064 14.46684 29401 ft 448 kts 135°
2026-05-05 20:54 55.02130 14.50960 29726 ft 451 kts 135°
2026-05-05 20:55 55.00177 14.55276 29851 ft 457 kts 135°
2026-05-05 20:55 54.98195 14.59649 30085 ft 460 kts 135°
2026-05-05 20:55 54.96211 14.64017 30409 ft 460 kts 135°
2026-05-05 20:55 54.94224 14.68389 30726 ft 460 kts 135°
2026-05-05 20:56 54.92237 14.72743 31032 ft 460 kts 135°
2026-05-05 20:56 54.90251 14.77095 31329 ft 459 kts 135°
2026-05-05 20:56 54.88263 14.81441 31624 ft 459 kts 135°
2026-05-05 20:56 54.86274 14.85775 31868 ft 459 kts 136°
2026-05-05 20:57 54.84313 14.90054 32151 ft 459 kts 136°
2026-05-05 20:57 54.82385 14.94490 32404 ft 464 kts 130°
2026-05-05 20:57 54.80781 14.99391 32662 ft 469 kts 124°
2026-05-05 20:57 54.79232 15.04312 32810 ft 461 kts 125°
2026-05-05 20:58 54.76172 15.14138 32893 ft 457 kts 125°
2026-05-05 20:58 54.74692 15.18885 32884 ft 440 kts 125°
2026-05-05 20:58 54.73238 15.23518 32892 ft 439 kts 125°
2026-05-05 20:59 54.70297 15.32880 32904 ft 445 kts 125°
2026-05-05 20:59 54.67338 15.42270 32916 ft 444 kts 125°
2026-05-05 21:00 54.64374 15.51637 32917 ft 444 kts 125°
2026-05-05 21:00 54.61400 15.60993 32906 ft 444 kts 126°
2026-05-05 21:01 54.58084 15.69875 32914 ft 440 kts 131°
2026-05-05 21:01 54.54670 15.78517 32908 ft 439 kts 131°
2026-05-05 21:02 54.51258 15.87242 32909 ft 439 kts 131°
2026-05-05 21:02 54.47572 15.95504 32909 ft 437 kts 133°
2026-05-05 21:03 54.43984 16.03875 32904 ft 431 kts 133°
2026-05-05 21:03 54.40429 16.12190 32912 ft 432 kts 133°
2026-05-05 21:04 54.36862 16.20498 32877 ft 432 kts 133°
2026-05-05 21:04 54.33283 16.28805 32910 ft 433 kts 133°
2026-05-05 21:05 54.29697 16.37096 32895 ft 433 kts 133°
2026-05-05 21:05 54.26109 16.45365 32907 ft 433 kts 133°
2026-05-05 21:06 54.22550 16.53544 32897 ft 433 kts 133°
2026-05-05 21:06 54.18941 16.61811 32899 ft 433 kts 133°
2026-05-05 21:07 54.15330 16.70048 32901 ft 434 kts 133°
2026-05-05 21:07 54.11710 16.78285 32900 ft 434 kts 133°
2026-05-05 21:08 54.08087 16.86500 32904 ft 434 kts 133°
2026-05-05 21:08 54.04483 16.94644 32899 ft 429 kts 133°
2026-05-05 21:09 54.00879 17.02759 32888 ft 430 kts 133°
2026-05-05 21:09 53.97264 17.10868 32902 ft 432 kts 133°
2026-05-05 21:10 53.93634 17.19001 32888 ft 432 kts 133°
2026-05-05 21:10 53.89997 17.27115 32897 ft 432 kts 133°
2026-05-05 21:11 53.86358 17.35208 32899 ft 431 kts 133°
2026-05-05 21:11 53.82716 17.43278 32897 ft 431 kts 133°
2026-05-05 21:12 53.79064 17.51342 32879 ft 431 kts 133°
2026-05-05 21:12 53.75408 17.59396 32903 ft 432 kts 133°
2026-05-05 21:13 53.71771 17.67378 32891 ft 431 kts 133°
2026-05-05 21:13 53.68106 17.75397 32874 ft 431 kts 133°
2026-05-05 21:14 53.64461 17.83351 32900 ft 429 kts 133°
2026-05-05 21:14 53.60806 17.91295 32861 ft 428 kts 133°
2026-05-05 21:15 53.57160 17.99200 32891 ft 427 kts 133°
2026-05-05 21:15 53.53505 18.07093 32882 ft 427 kts 133°
2026-05-05 21:16 53.49857 18.14948 32890 ft 427 kts 133°
2026-05-05 21:16 53.46194 18.22811 32887 ft 427 kts 133°
2026-05-05 21:17 53.42528 18.30657 32882 ft 427 kts 133°
2026-05-05 21:17 53.38866 18.38470 32881 ft 426 kts 132°
2026-05-05 21:18 53.35202 18.46267 32871 ft 426 kts 133°
2026-05-05 21:18 53.31674 18.53748 32880 ft 426 kts 133°
2026-05-05 21:19 53.28003 18.61507 32855 ft 422 kts 133°
2026-05-05 21:19 53.24380 18.69142 32870 ft 423 kts 133°
2026-05-05 21:20 53.20845 18.76564 32858 ft 421 kts 132°
2026-05-05 21:20 53.17191 18.84224 32859 ft 422 kts 132°
2026-05-05 21:21 53.13570 18.91789 32859 ft 422 kts 132°
2026-05-05 21:21 53.09970 18.99286 32854 ft 422 kts 133°
2026-05-05 21:22 53.08138 19.03089 32680 ft 420 kts 133°
2026-05-05 21:22 53.06304 19.06897 31896 ft 422 kts 133°
2026-05-05 21:22 53.04482 19.10672 31283 ft 418 kts 133°
2026-05-05 21:22 53.02660 19.14438 30540 ft 418 kts 133°
2026-05-05 21:23 53.00841 19.18192 29829 ft 417 kts 133°
2026-05-05 21:23 52.99052 19.21882 28550 ft 426 kts 133°
2026-05-05 21:23 52.97187 19.25727 27777 ft 424 kts 133°
2026-05-05 21:23 52.95355 19.29492 27407 ft 415 kts 133°
2026-05-05 21:24 52.93543 19.33212 27079 ft 416 kts 133°
2026-05-05 21:24 52.91721 19.36943 26750 ft 417 kts 133°
2026-05-05 21:24 52.89901 19.40673 26407 ft 415 kts 133°
2026-05-05 21:24 52.88090 19.44366 26086 ft 411 kts 133°
2026-05-05 21:25 52.86321 19.47986 25766 ft 409 kts 133°
2026-05-05 21:25 52.84510 19.51673 25442 ft 407 kts 133°
2026-05-05 21:25 52.82730 19.55295 25111 ft 403 kts 133°
2026-05-05 21:25 52.80969 19.58876 24795 ft 400 kts 133°
2026-05-05 21:26 52.79239 19.62384 24486 ft 398 kts 133°
2026-05-05 21:26 52.77470 19.65972 24175 ft 396 kts 133°
2026-05-05 21:26 52.75731 19.69486 23861 ft 394 kts 133°
2026-05-05 21:26 52.73999 19.72989 23568 ft 392 kts 133°
2026-05-05 21:27 52.72300 19.76414 23250 ft 390 kts 133°
2026-05-05 21:27 52.70594 19.79882 22897 ft 388 kts 132°
2026-05-05 21:27 52.69052 19.83536 22542 ft 389 kts 124°
2026-05-05 21:27 52.67667 19.87350 22189 ft 385 kts 128°
2026-05-05 21:28 52.65963 19.90689 21843 ft 379 kts 137°
2026-05-05 21:28 52.64071 19.93684 21508 ft 374 kts 143°
2026-05-05 21:28 52.62060 19.96381 21091 ft 372 kts 146°
2026-05-05 21:28 52.60022 19.98976 20654 ft 368 kts 146°
2026-05-05 21:29 52.57996 20.01505 20226 ft 365 kts 147°
2026-05-05 21:29 52.55969 20.04003 19810 ft 362 kts 147°
2026-05-05 21:29 52.53956 20.06468 19399 ft 360 kts 147°
2026-05-05 21:29 52.51951 20.08910 18984 ft 358 kts 147°
2026-05-05 21:30 52.49952 20.11312 18644 ft 355 kts 147°
2026-05-05 21:30 52.47960 20.13691 18321 ft 354 kts 147°
2026-05-05 21:30 52.45974 20.16050 17983 ft 353 kts 147°
2026-05-05 21:30 52.44020 20.18364 17614 ft 350 kts 147°
2026-05-05 21:31 52.42089 20.20666 17252 ft 348 kts 147°
2026-05-05 21:31 52.40142 20.23000 16883 ft 346 kts 147°
2026-05-05 21:31 52.38209 20.25319 16503 ft 343 kts 147°
2026-05-05 21:31 52.36350 20.27546 16157 ft 341 kts 147°
2026-05-05 21:32 52.34447 20.29833 15804 ft 338 kts 147°
2026-05-05 21:32 52.32531 20.32035 15450 ft 335 kts 152°
2026-05-05 21:32 52.30516 20.33901 15108 ft 331 kts 155°
2026-05-05 21:32 52.28486 20.35649 14768 ft 329 kts 156°
2026-05-05 21:33 52.26520 20.37304 14435 ft 326 kts 156°
2026-05-05 21:33 52.24505 20.38986 14107 ft 324 kts 157°
2026-05-05 21:33 52.22502 20.40659 13770 ft 322 kts 157°
2026-05-05 21:33 52.20516 20.42324 13418 ft 320 kts 156°
2026-05-05 21:34 52.19204 20.43413 13190 ft 318 kts 156°
2026-05-05 21:34 52.17157 20.45095 12799 ft 317 kts 156°
2026-05-05 21:34 52.15202 20.46688 12292 ft 317 kts 157°
2026-05-05 21:34 52.13239 20.48279 11780 ft 313 kts 156°
2026-05-05 21:35 52.11451 20.50283 11258 ft 314 kts 138°
2026-05-05 21:35 52.10658 20.51769 10987 ft 315 kts 131°
2026-05-05 21:35 52.09369 20.54639 10497 ft 313 kts 128°
2026-05-05 21:35 52.08142 20.57545 10020 ft 310 kts 127°
2026-05-05 21:36 52.07010 20.60320 9756 ft 300 kts 127°
2026-05-05 21:36 52.05882 20.63120 9542 ft 289 kts 127°
2026-05-05 21:36 52.04815 20.65799 9398 ft 275 kts 126°
2026-05-05 21:36 52.03834 20.68284 9041 ft 265 kts 126°
2026-05-05 21:37 52.02864 20.70761 8724 ft 256 kts 126°
2026-05-05 21:37 52.01915 20.73192 8270 ft 255 kts 126°
2026-05-05 21:37 52.01510 20.74233 8073 ft 254 kts 126°
2026-05-05 21:37 52.00568 20.76653 7626 ft 253 kts 126°
2026-05-05 21:38 51.99634 20.79059 7197 ft 251 kts 127°
2026-05-05 21:38 51.98409 20.82224 6513 ft 249 kts 126°
2026-05-05 21:38 51.97746 20.83947 6050 ft 248 kts 127°
2026-05-05 21:38 51.96833 20.86316 5425 ft 247 kts 126°
2026-05-05 21:39 51.95946 20.88626 5088 ft 239 kts 127°
2026-05-05 21:39 51.95378 20.90127 5001 ft 224 kts 127°
2026-05-05 21:39 51.94572 20.92284 4570 ft 225 kts 127°
2026-05-05 21:39 51.94105 20.93724 4292 ft 228 kts 115°
2026-05-05 21:40 51.93964 20.95991 3912 ft 235 kts 87°
2026-05-05 21:40 51.94177 20.98594 3563 ft 232 kts 83°
2026-05-05 21:40 51.94582 21.01165 3177 ft 234 kts 70°
2026-05-05 21:40 51.95096 21.03251 3099 ft 242 kts 68°
2026-05-05 21:41 51.95747 21.05715 3028 ft 234 kts 67°
2026-05-05 21:41 51.96367 21.08008 3009 ft 233 kts 67°
2026-05-05 21:41 51.97007 21.10435 3003 ft 235 kts 73°
2026-05-05 21:41 51.97309 21.13020 3013 ft 233 kts 84°
2026-05-05 21:42 51.97498 21.15503 3013 ft 234 kts 86°
2026-05-05 21:42 51.97563 21.18059 2979 ft 216 kts 104°
2026-05-05 21:42 51.96911 21.20044 2949 ft 190 kts 146°
2026-05-05 21:42 51.95782 21.20700 2944 ft 166 kts 193°
2026-05-05 21:43 51.94869 21.19778 2972 ft 158 kts 243°
2026-05-05 21:43 51.94845 21.18026 3018 ft 166 kts 288°
2026-05-05 21:43 51.95378 21.16333 3042 ft 170 kts 293°
2026-05-05 21:43 51.95988 21.14695 3028 ft 171 kts 300°
2026-05-05 21:44 51.96757 21.13199 3019 ft 174 kts 305°
2026-05-05 21:44 51.97538 21.11828 3005 ft 176 kts 310°
2026-05-05 21:44 51.98645 21.10976 3001 ft 189 kts 346°
2026-05-05 21:44 51.99968 21.10776 3017 ft 191 kts 349°
2026-05-05 21:45 52.01231 21.10296 2971 ft 184 kts 333°
2026-05-05 21:45 52.02417 21.09523 2822 ft 183 kts 328°
2026-05-05 21:45 52.03529 21.08612 2757 ft 176 kts 323°
2026-05-05 21:45 52.04573 21.07667 2695 ft 170 kts 322°
2026-05-05 21:46 52.05581 21.06756 2506 ft 159 kts 321°
2026-05-05 21:46 52.06458 21.05845 2351 ft 146 kts 316°
2026-05-05 21:46 52.07295 21.04951 2125 ft 144 kts 321°
2026-05-05 21:46 52.08141 21.04035 1848 ft 145 kts 326°
2026-05-05 21:47 52.09025 21.03277 1595 ft 143 kts 333°
2026-05-05 21:47 52.09905 21.02553 1434 ft 142 kts 332°
2026-05-05 21:47 52.10765 21.01762 1335 ft 144 kts 331°
2026-05-05 21:47 52.11649 21.00994 1254 ft 144 kts 336°
2026-05-05 21:48 52.12441 21.00276 1064 ft 142 kts 333°
2026-05-05 21:48 52.13322 20.99501 908 ft 143 kts 338°
2026-05-05 21:48 52.14209 20.98800 693 ft 141 kts 336°
2026-05-05 21:48 52.15063 20.98028 501 ft 139 kts 336°
2026-05-05 21:49 52.15892 20.97304 355 ft 127 kts 339°
2026-05-05 21:49 52.16591 20.96712 339 ft 101 kts 335°
2026-05-05 21:49 52.17149 20.96209 335 ft 75 kts 330°
2026-05-05 21:49 52.17398 20.95986 334 ft 10 kts 335°
2026-05-05 21:50 52.17480 20.96012 335 ft 14 kts 31°
2026-05-05 21:50 52.17533 20.96053 338 ft 5 kts 24°
2026-05-05 21:50 52.17573 20.96089 335 ft 8 kts 38°
2026-05-05 21:50 52.17586 20.96131 338 ft 3 kts 79°
2026-05-05 21:51 52.17579 20.96200 337 ft 9 kts 111°
2026-05-05 21:51 52.17531 20.96272 337 ft 11 kts 153°
2026-05-05 21:51 52.17456 20.96339 338 ft 13 kts 151°
2026-05-05 21:51 52.17362 20.96421 336 ft 17 kts 151°
2026-05-05 21:52 52.17155 20.96602 336 ft 10 kts 151°
2026-05-05 21:52 52.17135 20.96705 337 ft 11 kts 64°
2026-05-05 21:52 52.17162 20.96819 335 ft 9 kts 104°
2026-05-05 21:53 52.17104 20.96886 334 ft 12 kts 150°
2026-05-05 21:53 52.17021 20.96959 337 ft 15 kts 152°
2026-05-05 21:53 52.16923 20.97045 337 ft 17 kts 151°
2026-05-05 21:53 52.16848 20.97111 333 ft 6 kts 152°
2026-05-05 21:54 52.16832 20.97171 334 ft 7 kts 76°
2026-05-05 21:54 52.16844 20.97247 336 ft 7 kts 76°
2026-05-05 21:54 52.16848 20.97276 337 ft 0 kts 76°